Wind_Speed
57 56 56 57 57 58 58 58 58 59 60 60 60 61 60 60 62 65 67 65 63 61 58 56 56 55 56 56 57 58 57 56 55 57 58 56 54 53 54 55 57 57 56 55 51 47 46 45 44 41 39 42 48 49 41 36 42 43 39 38 39 39 34 34 40 42 43 42 41 40 37 37 38 39 39 38 36 38 41 39 37 35 35 35 32 29
55 55 55 57 58 57 57 57 58 59 60 60 60 59 58 58 60 63 64 62 59 59 58 55 54 54 55 56 57 59 60 59 58 58 58 59 57 55 56 57 57 57 56 56 53 48 45 44 44 45 43 42 43 44 43 43 43 40 38 37 33 31 32 39 46 45 42 42 41 38 36 36 36 36 36 37 36 37 38 38 38 36 34 33 31 31
53 55 57 58 57 56 57 57 57 58 57 57 55 54 53 55 58 58 59 58 54 55 56 54 51 51 53 55 57 60 62 62 62 61 59 59 58 57 58 58 56 56 55 54 52 49 45 44 44 46 47 44 39 39 40 42 44 41 42 40 34 32 39 46 49 46 43 42 39 37 37 36 35 34 35 36 36 36 36 34 35 35 35 35 33 33
53 56 58 57 56 56 56 55 54 53 52 51 50 48 49 51 53 54 55 54 52 52 52 50 49 49 50 53 55 58 60 59 60 61 59 57 54 53 55 57 54 53 51 49 49 46 44 43 44 46 44 40 36 38 39 40 44 45 47 48 43 38 43 50 49 47 45 44 42 39 38 39 36 34 35 36 38 40 39 36 35 36 37 38 37 35
55 58 57 55 54 53 51 50 50 47 46 47 44 43 46 48 49 50 52 51 50 48 47 46 47 46 47 49 51 55 56 55 55 55 55 55 52 48 50 53 51 50 48 44 44 42 40 41 45 46 43 38 36 38 40 42 48 48 49 53 51 44 46 51 51 47 45 45 46 43 41 40 39 36 35 36 37 39 41 39 36 37 38 40 40 39
56 57 55 53 51 49 48 46 44 41 43 44 41 40 44 46 46 47 49 49 46 45 44 45 44 43 43 45 48 51 52 51 50 49 51 54 52 46 46 49 48 47 45 40 39 39 38 41 45 46 44 41 39 40 40 43 49 50 51 56 55 51 50 53 54 50 46 46 47 45 43 41 40 38 36 37 36 36 36 36 35 36 38 39 39 38
56 55 52 50 49 46 44 42 39 39 42 41 40 42 44 45 45 45 46 45 43 43 45 45 43 41 40 42 47 49 49 49 48 47 48 53 55 47 43 46 44 41 41 37 37 39 40 42 42 43 45 43 41 43 42 44 50 52 52 56 55 53 52 53 54 52 47 47 46 44 43 41 41 40 39 41 39 35 34 33 34 36 37 37 35 36
54 53 50 48 46 44 41 39 38 40 39 39 41 44 44 45 45 43 43 42 42 43 44 45 44 41 40 42 46 47 46 47 48 47 47 52 57 50 41 41 39 37 39 38 38 40 42 43 39 39 45 47 45 44 43 44 51 55 55 55 53 53 52 52 53 52 48 47 45 43 43 42 42 41 42 44 42 37 35 35 35 37 38 38 37 38
53 51 49 47 45 41 39 38 39 38 36 37 42 44 43 45 44 43 42 42 43 43 42 46 48 44 40 41 45 46 46 47 48 48 48 52 56 51 42 39 38 38 38 37 37 39 41 41 38 38 45 54 53 49 47 47 52 57 58 55 52 51 52 52 51 51 50 48 46 45 44 42 42 43 43 44 42 40 39 39 38 38 39 41 41 41
52 50 48 46 43 40 37 37 38 38 37 39 42 42 41 42 42 43 44 43 44 41 42 48 51 47 40 40 45 46 46 49 49 49 51 53 52 49 44 39 36 35 36 36 37 38 40 42 42 42 45 54 60 58 55 52 52 56 57 56 55 51 50 51 51 50 51 49 48 48 45 43 42 42 42 42 41 40 40 40 39 38 39 41 41 41
50 50 47 44 41 38 36 38 40 40 39 40 42 41 40 40 39 43 45 43 41 40 43 49 50 47 42 42 48 48 47 49 51 51 50 52 50 45 42 38 34 33 33 35 37 38 42 45 45 45 45 51 61 66 63 56 52 54 54 54 55 52 50 50 50 51 51 51 51 49 47 44 43 43 42 41 40 40 41 41 40 38 38 39 39 39
49 49 46 42 41 39 37 40 43 42 40 40 42 42 41 40 38 41 43 41 38 39 45 48 48 48 45 45 49 49 47 47 49 51 48 48 47 42 37 35 33 31 29 31 34 38 43 45 45 45 46 49 56 65 68 61 54 53 52 52 54 55 54 51 50 51 51 52 52 52 50 48 46 44 41 40 39 39 40 41 40 39 38 38 38 38
50 48 45 43 43 41 39 41 44 42 40 40 42 43 42 41 39 39 41 41 40 41 45 47 47 48 48 47 49 49 47 45 47 48 44 42 41 35 32 30 26 25 25 26 30 35 39 43 44 44 44 47 52 60 66 66 60 56 53 53 54 56 55 52 51 50 50 50 51 52 53 51 49 47 43 41 40 40 41 41 41 41 41 41 40 38
50 48 45 43 42 42 41 41 43 43 42 41 43 44 44 43 41 41 41 42 42 43 45 47 48 49 50 50 48 45 44 44 44 42 37 33 30 26 26 22 18 20 22 22 25 29 34 39 43 43 41 44 50 55 62 65 64 62 58 55 54 55 55 53 50 47 48 49 50 52 53 53 52 50 47 45 44 44 45 44 44 45 45 43 42 40
50 47 45 43 42 43 44 43 43 43 42 41 43 45 45 44 44 44 44 42 42 43 45 48 49 50 51 50 45 42 42 42 41 37 30 25 21 19 18 15 14 15 16 16 18 23 28 33 38 41 41 42 46 51 57 62 64 64 62 60 56 53 54 52 47 45 46 47 49 52 53 53 52 51 50 48 47 47 48 48 49 49 47 45 45 44
50 48 47 45 44 44 44 44 45 43 43 42 43 45 46 46 47 47 45 43 43 43 46 49 50 50 51 48 43 41 41 39 34 28 20 18 19 20 20 15 11 11 11 11 11 17 23 27 30 35 40 42 44 47 51 55 59 61 61 62 59 53 51 50 46 43 44 46 48 50 52 52 52 52 51 50 49 49 49 50 51 51 49 48 47 47
52 50 48 48 47 44 43 46 46 44 45 44 42 43 47 49 48 47 47 45 44 44 47 50 51 51 49 45 41 39 37 32 25 19 18 22 24 23 21 17 14 13 12 10 10 15 19 19 21 29 38 42 43 45 47 50 53 55 57 58 57 53 50 50 49 44 41 43 45 49 51 50 50 51 51 50 50 50 49 49 51 51 50 49 49 48
53 51 50 49 48 46 44 46 47 46 47 46 44 45 48 50 49 48 48 47 46 46 47 49 52 51 46 41 38 35 31 25 20 22 26 27 26 24 20 18 22 22 15 11 13 16 15 13 16 25 32 35 36 39 42 45 48 50 52 54 54 52 50 51 52 49 45 43 44 47 50 49 48 49 50 51 51 51 51 50 50 50 49 48 49 48
53 52 50 48 49 48 46 46 47 48 49 48 48 48 49 50 50 49 49 48 48 47 47 50 51 49 43 37 34 31 27 21 18 25 30 28 26 24 19 18 23 22 14 13 17 17 15 15 18 24 27 27 30 33 36 40 43 45 48 49 48 47 47 49 53 53 49 47 47 48 50 49 47 45 46 51 52 52 53 52 51 50 48 47 47 47
52 51 49 48 50 51 47 46 48 49 51 51 50 50 50 50 50 50 50 49 48 47 47 50 50 45 39 33 27 24 22 20 19 26 31 30 26 22 16 13 17 17 17 19 20 16 14 16 20 25 27 28 30 30 31 34 37 40 41 40 40 41 44 46 50 53 53 52 49 49 50 49 45 42 41 46 50 52 53 53 51 49 47 47 47 46
52 50 49 49 52 52 48 46 48 50 52 52 51 51 51 51 51 50 50 49 48 48 48 49 47 42 34 26 20 19 22 23 22 27 30 30 27 22 15 13 16 20 23 25 23 15 13 14 17 21 23 27 30 30 31 33 34 35 36 33 33 38 43 44 48 54 57 55 51 49 48 45 42 42 41 43 47 51 53 54 52 49 47 47 47 47
53 51 51 51 53 53 49 48 50 53 53 52 52 53 53 52 51 50 49 48 48 48 48 47 44 39 30 24 20 19 23 24 23 25 27 29 29 25 21 24 27 26 26 31 29 23 19 19 23 26 26 28 31 32 35 36 33 32 33 32 31 37 44 47 50 54 56 55 53 49 45 40 39 41 43 45 47 50 54 55 54 52 50 49 50 50
54 52 53 53 54 54 52 51 52 53 52 52 54 55 54 51 49 48 47 47 46 46 46 44 41 35 28 26 25 23 25 25 23 22 24 28 31 28 28 34 37 34 32 35 37 35 32 32 35 39 39 37 36 37 40 41 39 37 39 40 40 43 47 47 49 52 54 54 51 45 41 40 41 41 44 48 49 50 54 56 56 54 51 50 51 52
56 55 54 55 56 56 55 54 53 53 54 55 54 52 50 47 46 46 45 44 45 44 42 40 36 31 25 26 30 31 32 31 28 27 26 29 32 32 33 39 43 41 39 39 40 41 41 41 42 47 50 48 45 44 46 48 49 48 49 51 52 53 52 48 47 50 52 53 48 42 42 44 44 42 43 47 49 49 52 54 54 52 50 49 51 53
60 59 57 58 59 57 56 54 53 55 56 54 51 48 47 46 45 44 43 43 43 41 39 37 32 28 24 26 32 37 39 36 32 31 31 31 33 35 37 40 43 42 41 42 42 42 43 44 44 46 50 54 55 53 53 55 56 56 58 58 57 57 55 53 51 50 49 51 50 46 44 43 44 44 44 45 48 50 52 52 49 47 47 49 51 52
64 63 60 60 59 56 56 55 53 54 53 50 47 46 46 46 45 43 42 41 41 40 38 35 29 26 25 27 34 41 44 40 35 33 34 34 36 38 39 41 43 42 41 42 43 43 43 43 44 45 46 51 57 60 61 61 61 61 63 63 61 60 58 57 55 52 49 50 50 49 46 44 46 48 48 48 49 51 54 53 49 46 48 51 53 52
65 63 60 60 59 57 56 55 53 53 51 48 45 45 45 45 43 41 40 39 40 40 38 30 25 28 29 31 37 44 47 44 40 37 37 38 39 41 41 43 45 45 43 43 44 45 45 43 43 43 44 47 53 60 63 65 66 66 66 65 63 61 61 60 57 53 51 49 47 47 47 47 47 49 52 55 55 54 56 57 54 51 51 54 54 52
63 61 60 58 57 56 55 53 51 50 48 46 44 44 45 44 41 40 40 40 40 38 33 26 25 28 31 33 39 47 50 47 43 41 40 40 41 41 43 45 47 47 47 46 46 48 48 45 42 41 42 44 48 55 61 64 67 67 66 65 63 61 60 58 55 52 50 48 44 42 43 46 48 49 52 55 55 54 56 59 59 57 55 55 54 54
62 61 59 57 55 54 52 51 49 47 45 44 43 44 46 45 44 43 43 43 40 36 30 27 26 28 31 33 38 48 52 50 46 44 43 41 41 42 43 45 47 49 50 50 49 49 48 46 43 40 39 40 44 49 55 60 63 64 63 61 60 58 55 52 50 48 46 44 41 40 42 46 49 49 49 50 52 52 53 55 59 60 59 57 55 55
65 62 59 56 54 52 51 50 47 46 45 44 43 45 47 47 47 46 46 45 42 38 32 30 29 32 34 33 35 44 51 52 49 48 46 44 42 42 43 45 46 48 50 51 51 50 49 48 45 41 39 39 41 44 48 54 57 59 59 57 55 54 52 50 47 42 39 39 40 43 47 50 50 49 48 49 51 52 51 53 57 59 59 58 56 56
67 65 61 57 54 52 51 50 47 47 47 46 45 46 48 49 50 49 48 47 43 39 35 30 29 34 39 37 34 38 45 50 50 50 49 47 44 42 43 44 45 46 47 49 51 51 50 50 47 43 41 40 40 42 44 48 51 52 53 54 54 53 52 49 45 40 39 42 44 47 50 51 52 52 51 51 51 51 52 54 56 58 59 59 57 56
67 66 63 60 56 54 52 51 50 49 49 48 48 48 50 52 52 50 49 47 42 39 37 32 29 32 38 38 35 34 38 43 48 50 50 49 48 45 45 45 45 45 46 47 50 51 51 50 47 43 42 41 40 41 43 46 47 48 48 50 52 51 48 46 44 43 45 47 47 47 50 50 50 51 51 51 51 51 52 54 56 57 59 59 57 55
63 64 64 62 59 55 54 54 53 52 51 51 50 51 53 55 54 52 50 49 45 41 38 37 36 33 35 37 36 33 34 37 42 46 49 50 50 48 47 47 46 45 45 46 48 50 50 49 46 43 41 41 41 41 43 44 45 46 46 48 50 48 43 42 44 45 48 50 49 49 49 49 48 48 48 47 48 51 53 54 55 55 57 59 59 57
59 60 60 61 60 58 57 57 57 55 54 53 52 53 55 56 55 54 52 50 47 43 40 42 43 40 39 40 39 38 37 37 39 43 46 49 50 50 48 47 45 44 44 44 46 47 47 47 46 43 41 41 41 41 42 44 44 45 46 47 49 47 42 41 45 48 50 53 52 50 50 48 47 46 45 45 47 51 54 55 54 54 55 57 59 58
58 57 57 58 59 59 59 59 60 58 57 56 55 55 56 56 56 55 53 51 49 46 43 43 46 47 45 44 43 42 41 40 40 42 44 46 48 50 50 49 48 46 44 43 43 44 45 45 45 44 42 41 41 41 42 43 44 46 47 47 47 46 46 47 48 49 52 54 52 51 51 50 47 45 45 46 48 51 53 54 54 53 54 54 55 55
56 56 57 58 60 60 61 62 62 61 58 58 57 57 57 57 57 57 55 52 50 48 45 43 45 50 52 49 46 45 43 43 43 43 44 45 47 48 49 50 52 51 48 44 42 43 42 42 44 45 44 42 42 41 42 44 45 47 48 48 48 49 53 55 51 49 52 54 53 52 52 52 50 48 48 49 49 49 50 51 51 52 52 53 53 53
53 55 56 58 60 61 61 62 62 61 59 58 58 58 58 58 58 58 57 55 52 50 48 45 43 48 53 54 51 48 46 45 45 45 45 45 46 48 48 48 50 52 52 48 43 41 40 40 42 44 44 43 43 42 43 45 47 49 50 51 53 55 58 59 55 51 51 53 53 53 53 54 54 53 52 53 54 52 50 49 50 51 51 53 54 54
54 55 57 58 59 60 60 61 60 59 58 59 59 59 59 59 59 59 57 56 54 52 50 48 45 46 52 57 56 52 50 48 48 48 48 47 48 48 48 47 47 48 50 50 45 40 39 39 40 42 43 43 44 44 45 47 50 52 53 54 57 58 59 61 59 54 52 53 54 54 55 56 57 56 56 56 57 57 54 53 52 51 52 55 57 57
55 57 59 59 59 59 60 60 60 59 59 59 59 59 60 60 60 59 58 57 56 54 52 50 48 47 51 56 58 56 54 52 50 49 50 50 51 51 51 50 47 45 47 49 47 42 39 38 39 40 41 43 44 45 47 49 52 54 56 58 60 61 61 62 61 58 55 55 55 56 58 58 58 59 58 58 58 58 57 56 54 53 55 59 60 60
56 58 60 60 59 59 60 59 59 59 58 59 60 60 60 61 60 59 58 58 57 56 54 52 52 51 51 54 58 59 57 56 54 51 50 50 51 54 54 53 51 48 46 47 48 46 42 38 38 39 40 42 44 46 48 51 54 56 58 61 63 63 63 63 63 62 60 57 56 57 59 60 61 61 61 60 59 59 58 57 56 56 58 61 62 62
58 59 60 60 59 59 60 60 60 59 59 61 63 62 61 62 61 60 60 59 58 58 57 54 53 53 53 53 56 59 60 59 57 54 52 51 52 54 55 55 54 53 50 47 47 47 46 41 38 38 40 42 44 46 48 52 55 58 60 63 66 66 66 65 66 65 63 60 58 57 57 59 60 61 62 62 62 62 61 60 60 59 61 63 65 66
59 60 60 60 60 60 60 60 60 60 61 63 65 65 64 63 62 62 61 60 59 59 58 56 52 52 54 53 54 57 59 58 57 56 55 54 55 54 54 54 54 54 55 52 48 47 47 45 41 38 40 42 44 46 49 53 57 60 63 65 68 70 69 68 67 67 66 63 61 59 58 57 57 59 61 61 62 62 62 63 63 63 64 66 67 69
55 56 57 57 58 59 61 61 61 61 63 66 67 67 66 65 63 63 62 60 60 59 58 56 53 51 52 54 54 55 55 55 55 56 56 56 57 56 54 53 52 53 55 56 53 49 48 47 44 40 41 43 45 47 49 53 59 63 65 67 70 72 72 71 68 68 68 66 64 62 60 58 57 58 59 59 60 61 62 63 64 64 65 67 69 71
50 51 52 53 54 56 59 60 61 62 65 68 69 68 67 65 63 62 61 60 59 58 56 56 55 52 50 52 53 54 53 53 53 53 53 54 55 55 53 52 52 52 53 56 57 54 50 48 46 43 43 44 46 49 51 54 60 65 67 69 70 73 75 74 71 69 69 69 67 65 63 61 60 60 60 61 63 64 65 65 66 67 68 69 70 71
45 46 47 49 51 54 56 58 59 61 63 66 67 66 64 62 61 59 59 58 57 56 56 56 57 56 53 51 52 53 53 53 53 52 52 52 53 53 52 51 51 51 52 54 56 56 53 51 49 47 46 46 48 51 52 55 59 65 70 71 72 73 75 77 76 73 72 71 70 68 67 65 64 63 64 65 66 67 67 68 68 69 69 70 70 70
41 41 42 46 49 52 54 56 57 59 61 63 63 63 61 60 59 58 57 57 56 56 56 56 57 58 55 52 52 52 52 53 54 54 53 53 52 51 51 50 50 50 51 53 55 56 56 56 54 51 50 50 50 52 54 56 59 65 71 74 74 75 76 78 79 77 76 74 73 72 71 69 68 68 69 69 69 68 68 69 70 70 71 71 71 72
36 37 38 42 45 47 48 51 53 56 58 60 61 61 60 59 58 58 57 56 55 55 55 56 56 57 55 53 52 51 50 51 52 53 53 53 53 53 53 52 51 50 51 53 54 55 57 57 56 55 54 53 53 54 56 57 59 63 69 75 77 78 78 78 80 80 79 77 77 76 75 74 74 74 74 75 74 74 73 73 73 74 74 75 75 75
32 33 35 38 41 41 43 46 49 51 54 57 58 59 59 59 58 57 56 55 54 53 53 53 54 54 54 53 53 53 53 52 52 53 54 55 55 55 55 55 54 53 52 53 54 55 56 57 57 57 56 55 55 56 58 59 60 63 68 73 77 80 80 81 81 82 81 80 79 78 78 78 78 79 79 79 80 80 79 79 79 79 79 79 80 80
29 31 33 35 37 38 39 42 45 48 51 53 55 56 57 57 56 55 54 53 53 52 51 52 52 53 53 53 54 54 54 55 55 55 56 57 57 57 58 58 59 58 56 55 55 55 57 57 57 58 59 58 57 58 59 60 61 64 68 72 76 79 82 83 83 84 84 83 82 81 80 80 80 81 81 82 82 83 83 83 83 84 84 84 84 84
25 28 30 32 34 35 37 40 43 46 48 50 51 52 52 51 51 50 49 49 48 47 46 47 48 49 51 53 54 56 56 57 58 58 59 59 60 60 60 61 61 61 61 59 58 57 57 58 59 60 60 60 59 60 61 62 63 64 68 73 76 79 81 83 85 85 86 86 85 84 83 83 82 82 83 83 83 84 84 84 85 85 85 86 86 86
21 24 27 29 31 33 36 39 41 43 45 45 45 45 44 44 43 42 41 41 40 40 40 40 41 42 44 46 49 51 54 57 59 60 62 62 63 64 64 64 64 64 64 64 62 61 60 60 60 61 62 62 62 62 63 64 65 65 68 73 78 81 82 84 85 86 87 88 88 88 87 86 85 85 85 85 85 85 86 86 86 87 87 86 86 87
Wind_Direction
246 248 250 253 255 257 260 261 263 265 266 266 266 266 266 266 264 263 263 263 262 262 260 259 258 258 259 261 263 263 262 261 260 261 262 260 258 259 260 262 264 265 265 263 260 256 254 252 246 240 233 229 228 228 227 239 254 259 261 260 260 262 262 254 249 246 246 252 256 256 256 255 253 251 251 250 249 248 251 253 255 261 265 265 264 259
246 249 251 253 255 258 261 263 265 267 267 267 267 267 266 263 261 261 262 263 263 264 261 258 256 256 257 259 261 263 263 262 261 261 263 265 264 262 260 260 261 263 264 264 263 259 254 251 246 240 236 231 228 229 230 232 240 251 254 251 249 250 245 245 250 251 252 256 256 253 254 255 254 253 253 252 250 249 251 254 257 260 259 256 255 250
247 249 250 252 256 259 263 265 266 267 268 268 267 266 265 262 261 261 262 263 263 263 263 261 258 257 257 258 260 262 263 264 264 264 264 265 266 267 265 263 261 261 262 262 262 260 255 249 244 240 236 233 230 226 227 228 228 236 244 239 229 231 238 244 250 252 252 254 251 247 248 250 251 253 255 253 251 251 253 255 258 258 254 252 252 250
246 248 250 254 258 261 264 266 266 267 267 266 265 265 263 262 262 263 263 263 262 262 263 264 262 260 260 261 261 262 263 265 266 267 266 264 263 264 266 266 264 262 260 260 259 257 253 247 241 237 232 226 223 217 217 222 219 224 236 235 228 230 239 243 246 247 249 250 249 246 245 247 250 253 254 255 254 254 256 258 256 254 253 254 255 258
246 249 252 256 259 262 264 266 267 268 267 265 264 264 263 262 263 264 265 265 264 264 264 264 262 261 262 263 264 264 265 266 267 269 270 268 264 260 261 263 264 263 260 258 258 255 249 243 235 230 223 214 212 211 214 216 212 218 230 231 228 230 236 239 240 243 245 246 249 249 247 248 251 254 256 256 256 256 258 258 253 250 254 258 260 265
248 251 254 257 260 263 265 267 269 268 266 266 266 264 263 264 264 264 266 267 268 268 266 263 263 263 263 265 267 267 268 268 268 270 272 272 269 262 259 260 260 261 262 259 257 255 248 241 232 226 218 207 208 212 213 212 211 218 228 227 224 229 234 237 237 239 243 246 249 251 251 252 253 252 251 251 256 259 257 256 251 248 255 259 263 267
249 252 255 258 260 263 266 267 267 264 264 266 266 264 264 265 264 264 267 270 271 269 267 265 265 264 264 266 267 269 271 272 272 272 273 275 273 266 259 260 261 262 263 260 254 251 246 241 233 225 216 204 205 212 214 216 216 220 228 227 225 229 236 239 236 235 239 244 248 250 251 255 254 249 245 247 255 260 256 253 249 248 254 257 262 268
250 253 256 258 261 263 266 266 264 262 264 266 263 262 262 263 264 266 268 270 268 267 270 271 270 267 265 266 267 269 271 272 273 273 273 274 274 271 265 265 266 262 257 253 247 244 242 240 233 225 215 204 202 209 214 218 219 219 223 226 227 229 234 240 237 232 234 239 243 246 249 252 253 251 250 250 253 256 254 253 251 249 251 253 260 268
251 254 256 258 260 263 265 266 265 263 264 264 262 261 262 263 265 267 266 266 266 268 273 275 273 270 269 269 271 272 273 272 273 273 273 272 274 276 274 269 266 260 253 249 245 241 241 239 233 224 216 208 204 207 212 217 220 220 221 222 225 228 232 240 241 234 232 235 238 242 246 248 251 253 254 254 254 255 254 254 254 253 252 253 260 265
252 254 255 257 260 262 264 265 263 262 261 261 262 263 264 264 265 265 265 265 267 272 274 273 273 274 274 275 275 274 275 276 276 276 276 275 275 278 277 271 266 260 254 249 243 238 236 235 230 223 216 211 208 209 214 219 223 223 221 220 222 226 230 238 242 237 235 236 239 241 242 243 246 249 253 254 254 255 255 254 255 255 254 253 257 260
251 253 255 257 260 260 261 260 260 261 260 262 265 266 266 266 265 265 266 267 270 273 272 270 274 277 279 279 278 276 277 279 280 279 278 278 278 278 277 274 268 260 251 245 241 235 231 229 227 222 215 211 210 211 216 221 224 224 222 220 220 224 228 234 238 238 238 240 241 241 241 242 245 248 251 252 252 253 254 253 253 253 254 253 254 258
249 251 254 256 256 256 257 258 259 261 263 263 265 267 268 268 267 267 269 271 272 271 269 271 276 280 281 281 280 281 281 281 281 279 279 278 278 278 275 271 265 257 248 241 238 233 229 227 227 223 215 212 211 212 215 220 222 222 222 221 221 224 228 231 234 236 238 241 242 242 242 243 246 248 249 249 249 251 252 250 250 253 256 255 256 258
248 250 253 254 256 258 257 256 259 263 264 263 264 266 268 268 268 268 270 271 271 270 272 276 279 281 282 281 282 284 284 283 280 280 279 278 277 272 264 259 257 252 245 238 233 230 228 226 226 224 216 211 211 212 215 218 219 220 221 221 223 226 229 231 234 237 239 241 242 244 243 243 245 247 248 247 247 250 251 249 250 254 259 259 257 256
250 252 253 254 256 257 257 256 259 262 262 262 263 265 267 269 269 267 267 269 271 273 276 278 281 282 283 284 285 286 286 284 281 280 278 275 270 258 248 244 239 239 239 235 229 225 224 223 222 222 216 211 212 213 216 219 220 220 221 222 223 226 230 232 235 239 241 241 242 244 245 243 244 246 248 249 249 250 250 251 253 257 260 259 256 254
250 251 251 251 250 252 256 258 259 260 262 263 263 264 265 267 267 266 267 269 271 274 277 278 280 282 284 285 287 287 286 283 279 278 274 263 248 226 214 209 208 221 226 224 223 219 219 220 219 220 217 213 214 216 218 221 223 224 225 226 225 226 229 231 235 241 242 241 241 243 245 245 245 246 248 250 251 251 250 250 253 257 258 257 256 254
246 247 248 249 248 251 255 257 259 261 262 261 261 264 265 265 265 267 269 271 272 275 277 278 280 281 283 285 288 287 284 279 277 275 260 228 206 189 181 182 194 217 213 207 214 213 213 213 211 215 217 216 217 220 222 224 226 226 227 228 227 225 226 228 233 241 243 241 240 242 245 247 246 247 248 250 251 251 250 250 251 254 256 255 255 255
245 246 247 249 250 252 253 256 259 261 261 261 262 263 264 265 266 269 271 273 274 276 277 279 280 281 283 286 288 284 278 274 269 249 210 187 184 180 175 177 187 200 202 200 204 203 202 200 200 209 216 218 220 224 227 228 227 225 225 227 227 225 227 230 233 237 238 238 240 242 244 246 247 247 248 250 251 250 249 251 252 252 254 255 254 254
245 246 248 250 253 255 255 256 258 260 260 262 262 261 262 265 268 270 272 274 275 276 278 280 281 282 285 287 285 276 268 267 252 217 195 183 183 181 176 175 178 181 185 195 198 193 188 186 197 210 214 215 219 224 228 229 227 224 225 226 225 225 227 232 234 233 234 239 242 242 243 244 246 248 248 249 251 251 250 252 253 251 252 254 253 253
247 249 251 253 255 256 255 255 257 259 260 260 261 261 262 265 268 270 272 273 276 277 279 280 281 284 287 285 278 266 256 252 233 207 196 190 185 183 185 182 174 176 190 198 187 182 188 198 209 218 222 224 225 225 223 222 222 224 226 227 227 230 235 239 238 235 236 244 248 246 243 243 245 249 250 250 250 251 251 252 252 250 251 253 252 252
250 251 253 253 254 255 256 257 258 259 259 260 260 261 262 265 267 269 271 274 276 278 279 280 283 286 287 281 270 253 236 225 211 198 195 193 189 188 196 193 183 199 219 202 183 182 199 210 213 216 223 225 222 217 213 212 216 221 225 228 233 239 243 244 242 239 239 243 248 249 246 244 245 247 249 250 250 250 250 250 250 250 250 250 252 253
250 251 253 253 254 256 257 258 258 258 258 259 260 261 263 264 266 269 272 274 276 278 280 282 285 287 284 270 253 229 208 201 198 195 195 196 194 192 196 202 208 224 223 202 190 189 198 217 227 224 224 221 213 209 206 203 207 216 222 228 236 243 242 238 238 239 239 241 246 249 249 248 246 245 246 248 249 249 249 248 249 251 250 250 251 252
250 251 252 252 254 257 257 257 257 257 259 261 262 262 262 264 267 269 272 274 277 279 282 285 286 284 273 249 230 209 191 188 192 196 199 198 196 198 203 207 212 218 215 204 200 197 194 209 224 226 229 224 213 210 208 202 202 210 218 224 233 241 239 234 234 238 240 241 245 248 249 247 243 242 245 248 248 248 248 248 249 252 252 251 251 252
250 250 250 252 253 255 255 255 256 258 260 261 261 262 264 266 269 271 273 275 277 279 283 285 284 278 262 235 219 201 184 185 194 202 205 200 197 202 210 213 214 214 212 209 209 209 208 212 217 219 221 218 210 208 209 206 206 208 212 217 224 231 234 233 235 239 241 242 243 244 243 238 234 235 241 245 245 244 246 247 249 252 253 253 253 253
249 249 249 251 252 253 254 256 257 258 259 260 262 264 267 268 269 270 271 273 276 280 284 285 278 268 251 228 215 202 190 190 197 203 207 204 202 207 215 217 215 213 212 212 212 215 217 219 221 222 222 219 213 211 211 211 213 215 216 219 223 228 233 236 237 239 241 241 238 234 234 233 232 231 235 241 242 239 241 245 247 250 252 253 253 253
248 248 249 250 252 254 256 257 258 259 260 262 264 266 266 266 266 267 269 273 277 280 285 285 273 256 239 218 206 199 194 194 198 201 203 205 208 214 219 220 217 214 212 211 213 217 220 222 225 227 228 226 221 217 215 214 216 218 220 222 224 229 234 238 240 241 241 238 233 228 228 231 231 228 228 234 237 234 235 239 243 247 251 252 252 252
248 249 249 251 253 254 255 256 256 258 260 261 262 262 262 263 264 267 270 274 277 281 287 285 268 246 231 213 200 195 194 197 202 206 204 203 208 213 218 220 220 218 215 214 215 218 221 224 226 229 231 231 228 225 222 220 219 220 222 224 227 230 235 239 243 244 242 238 232 227 223 223 225 224 225 229 232 232 233 237 240 246 251 252 253 255
250 251 251 251 252 253 253 254 255 255 256 257 257 258 259 260 264 267 269 272 277 283 286 279 256 236 227 214 200 195 195 200 207 210 206 203 205 211 215 218 220 220 218 217 218 220 223 226 229 231 233 233 232 230 228 227 225 225 226 228 230 232 237 241 244 244 241 236 232 227 223 221 222 224 227 229 232 234 236 238 240 245 250 253 255 257
250 251 251 251 252 253 253 253 253 253 253 253 254 255 256 260 264 266 268 271 278 283 280 266 247 234 226 217 205 198 199 204 209 211 208 206 207 210 215 218 220 220 219 219 220 222 224 229 233 236 236 236 235 233 232 231 230 230 231 232 233 235 238 240 241 240 236 232 229 226 222 219 221 224 227 231 233 236 238 240 241 243 248 252 256 258
248 248 249 249 250 251 251 251 251 251 252 252 253 254 257 260 262 263 267 272 277 282 273 255 244 232 224 221 213 205 203 206 208 208 209 210 211 213 216 219 220 221 222 223 225 226 227 231 235 239 241 240 237 235 233 232 232 232 232 232 233 234 234 235 234 233 232 228 224 222 219 217 219 223 226 231 235 236 238 241 241 242 245 251 255 256
246 246 246 246 247 248 249 250 251 251 250 250 251 253 256 259 260 262 267 271 276 280 270 252 244 234 226 225 221 213 211 210 209 208 210 213 216 217 218 220 221 222 224 225 227 228 230 232 236 240 243 243 240 237 235 233 232 231 230 230 229 228 228 230 230 229 226 220 216 216 216 218 219 222 225 230 235 237 237 239 240 241 244 248 251 252
243 245 246 246 245 246 248 250 250 248 248 248 249 252 254 256 258 262 267 270 274 275 264 250 244 238 231 229 226 220 218 218 216 213 213 216 218 219 220 222 224 226 227 227 228 229 231 234 236 241 243 243 241 238 236 234 231 229 227 227 225 225 225 227 226 220 213 211 213 214 216 219 221 224 227 231 235 238 239 241 242 242 243 245 247 249
240 242 244 245 245 246 247 248 246 245 246 248 250 253 254 256 259 263 266 268 269 269 258 242 236 236 233 233 231 225 221 222 222 222 221 221 221 222 224 226 227 231 232 232 231 231 233 235 238 241 241 241 241 238 235 233 229 226 224 222 221 222 222 223 221 214 208 209 213 215 216 219 222 226 230 233 238 240 240 241 243 243 243 244 245 246
238 239 240 241 244 245 246 247 245 244 246 249 251 254 256 259 262 264 265 265 265 267 258 239 229 229 230 231 233 232 228 227 227 228 229 228 226 226 228 230 231 234 237 237 235 235 237 238 240 241 239 239 240 237 233 229 226 222 220 219 218 217 216 216 216 213 209 210 214 216 217 219 222 227 230 233 236 238 237 238 239 241 243 245 247 248
238 237 237 238 241 243 244 246 246 246 248 251 253 256 258 260 262 262 262 263 263 264 258 244 233 229 226 227 230 232 234 233 233 233 234 234 232 230 231 232 232 234 237 239 238 239 240 241 242 241 239 238 238 235 229 225 222 219 217 216 215 213 210 208 210 210 210 211 214 217 218 219 222 227 230 232 235 236 238 238 239 242 246 249 251 252
236 236 236 236 238 239 241 244 246 248 251 253 255 256 257 258 258 258 259 260 262 263 259 250 242 237 233 230 228 230 233 235 236 236 236 236 236 235 235 235 235 235 236 238 239 239 240 242 243 242 239 236 235 231 225 222 220 217 215 214 213 210 206 204 206 209 210 210 213 217 219 220 221 224 226 230 234 237 240 242 243 245 249 252 255 256
234 235 235 236 237 238 240 242 245 248 250 251 252 253 254 254 255 256 257 258 260 261 259 253 247 244 242 239 234 232 233 236 238 238 239 240 240 238 238 238 237 237 237 237 237 237 237 239 241 242 239 234 232 228 223 220 218 215 214 212 209 207 205 203 205 209 211 211 214 218 220 220 220 220 222 227 232 237 242 246 247 248 250 253 255 256
233 234 235 236 238 239 241 243 245 246 246 248 248 249 250 250 251 253 255 256 258 259 258 254 250 247 246 245 242 238 236 237 239 239 240 241 242 242 242 241 240 239 238 237 235 233 233 235 237 238 236 232 229 225 221 219 217 215 213 210 207 206 205 204 205 209 212 213 216 219 221 221 221 221 222 225 229 233 239 245 247 249 251 252 254 254
233 234 235 235 237 238 240 242 243 244 244 245 246 247 248 249 250 252 254 256 258 259 257 255 252 247 245 246 246 244 242 241 241 241 241 242 243 244 244 245 245 241 237 234 233 230 229 231 233 234 233 230 226 223 220 219 217 215 213 210 208 208 207 206 207 209 211 214 217 219 221 222 223 224 225 227 230 233 237 241 244 247 248 249 249 249
233 235 236 236 237 239 241 242 243 244 245 246 246 247 247 248 249 251 253 256 258 258 256 255 254 249 244 244 246 246 246 245 245 245 244 245 246 247 246 246 248 245 238 234 232 230 228 229 230 231 231 228 225 222 220 219 218 215 213 210 209 208 208 208 209 210 211 213 216 219 221 223 223 225 227 229 232 235 237 240 242 243 244 246 246 246
234 235 237 238 238 239 241 243 244 246 247 247 247 247 247 249 250 251 254 256 258 258 256 255 255 251 245 242 244 246 248 248 248 249 249 249 250 251 250 248 248 248 244 239 235 232 229 229 230 230 229 228 225 222 221 220 218 216 214 211 209 209 209 210 211 212 212 213 216 219 222 224 225 227 229 232 234 236 238 239 240 241 242 245 247 248
236 236 237 238 239 240 241 242 244 246 247 248 249 249 248 250 251 253 255 256 257 257 257 256 254 250 246 244 243 244 246 248 249 251 253 253 254 255 254 252 250 249 248 245 240 235 231 229 230 230 228 227 225 223 221 220 219 218 216 213 211 210 210 211 213 214 214 215 217 220 223 226 228 230 232 233 235 237 238 239 240 240 243 247 250 252
238 239 239 239 240 241 242 242 244 245 246 248 250 250 250 251 252 253 254 255 256 257 257 256 252 247 245 246 244 244 246 247 249 251 253 255 256 257 257 256 253 250 248 247 244 239 233 230 230 231 229 227 226 224 222 221 220 219 218 216 214 212 212 213 215 216 216 217 218 220 223 227 230 233 235 236 238 240 241 242 243 244 247 249 252 254
240 241 241 241 241 241 243 244 244 245 247 249 250 251 252 252 252 253 253 254 254 255 255 254 252 247 245 246 245 244 246 248 249 251 252 254 256 257 258 258 256 252 249 246 245 242 236 231 230 231 231 228 227 225 223 221 220 220 219 218 217 216 214 215 217 219 220 220 220 221 223 226 230 233 236 239 240 242 243 244 245 247 248 250 252 254
242 242 242 242 241 241 242 242 243 244 246 248 249 250 251 251 251 252 252 252 252 252 251 251 252 251 248 246 245 244 245 248 249 249 251 253 255 256 257 258 257 254 250 246 244 243 239 233 230 230 230 230 228 227 225 222 220 220 220 220 220 219 218 217 218 221 222 223 223 224 225 227 230 233 236 238 239 240 242 243 245 246 248 251 253 256
241 241 240 240 240 239 239 239 240 240 242 245 247 248 249 250 250 250 250 250 249 249 249 249 251 253 253 250 247 244 243 244 247 248 250 253 255 255 255 256 257 255 252 248 245 243 241 237 233 230 229 231 230 228 227 224 221 220 221 221 221 222 222 220 220 223 225 226 226 227 228 229 232 234 236 238 241 242 244 246 247 249 251 253 255 257
238 236 235 236 236 236 236 236 236 237 239 242 245 246 247 248 248 248 248 248 248 248 248 249 250 252 253 252 249 247 244 243 244 246 248 251 254 255 255 255 255 255 253 251 248 245 243 240 237 233 232 233 232 230 228 226 224 222 221 222 223 224 225 224 224 224 227 229 229 230 230 231 233 235 237 239 240 242 244 246 247 249 250 251 253 254
235 233 232 233 233 233 233 234 234 236 238 240 242 244 246 246 247 247 248 248 248 248 248 249 250 252 252 252 251 250 248 245 243 243 243 245 249 253 255 255 254 253 252 251 249 247 245 243 240 237 235 234 233 231 229 228 226 224 223 222 224 225 226 227 227 227 228 230 231 232 233 233 235 236 238 239 241 242 243 244 246 247 248 249 251 252
233 231 230 231 232 231 231 232 233 234 236 239 241 243 245 246 247 248 249 250 250 250 249 250 251 252 253 253 252 252 252 251 249 246 245 245 246 248 252 254 254 253 251 250 249 248 246 244 242 239 237 235 233 231 229 228 228 227 225 224 224 226 227 229 230 230 230 230 231 233 234 235 236 238 239 240 242 243 244 245 246 247 248 249 250 251
229 229 229 229 230 229 229 230 233 234 236 239 241 243 245 247 248 250 251 252 253 253 252 252 252 253 253 254 254 253 253 253 252 251 250 250 249 248 249 251 253 253 252 250 248 247 246 245 242 240 238 236 233 231 229 229 228 227 227 226 225 226 228 230 231 232 232 232 232 233 235 236 237 239 240 241 242 244 245 246 247 248 249 250 251 252
226 227 228 228 229 228 227 228 231 234 237 240 243 245 247 249 251 254 256 258 259 260 260 258 258 257 257 257 257 258 257 256 256 255 254 253 253 252 251 251 251 252 252 251 249 247 246 244 242 240 238 237 234 231 230 229 228 227 227 227 227 227 228 230 231 233 234 234 234 234 235 237 238 239 241 242 243 244 245 246 247 248 249 251 252 253
226 229 230 230 230 230 229 230 233 237 241 245 248 251 254 256 259 262 265 266 268 269 268 266 265 262 260 258 257 257 256 256 256 256 255 254 254 253 252 252 251 250 251 251 251 249 247 245 243 241 239 237 235 233 231 230 229 228 227 227 227 227 228 230 232 233 235 235 236 236 236 237 239 240 241 242 243 245 246 247 248 248 250 251 252 254
Height
10628 10632 10635 10635 10635 10635 10636 10639 10641 10641 10641 10643 10643 10643 10645 10645 10643 10637 10635 10644 10650 10653 10659 10661 10662 10663 10662 10661 10661 10663 10666 10670 10670 10668 10669 10675 10682 10685 10685 10684 10683 10685 10688 10693 10700 10707 10710 10714 10718 10724 10728 10731 10737 10744 10753 10756 10745 10742 10749 10747 10743 10744 10743 10735 10726 10722 10724 10723 10723 10724 10725 10727 10728 10728 10728 10729 10730 10732 10734 10735 10735 10736 10736 10737 10738 10738
10624 10628 10628 10626 10627 10629 10631 10634 10635 10635 10634 10635 10636 10637 10639 10637 10633 10630 10630 10637 10644 10646 10649 10655 10658 10658 10658 10657 10655 10655 10658 10661 10663 10664 10664 10666 10672 10677 10678 10678 10679 10681 10683 10685 10691 10699 10704 10707 10710 10714 10718 10722 10731 10740 10747 10750 10742 10736 10738 10738 10740 10741 10734 10722 10712 10714 10719 10719 10720 10721 10722 10724 10725 10726 10726 10726 10728 10730 10732 10732 10731 10732 10733 10734 10736 10736
10620 10620 10618 10618 10622 10626 10627 10629 10629 10628 10628 10628 10629 10631 10631 10628 10625 10625 10626 10630 10638 10639 10639 10647 10652 10653 10653 10651 10650 10649 10650 10654 10655 10657 10661 10661 10663 10666 10666 10669 10673 10675 10677 10680 10684 10690 10696 10699 10701 10703 10707 10715 10726 10734 10736 10738 10735 10729 10725 10726 10733 10733 10722 10710 10705 10708 10712 10713 10716 10717 10719 10721 10723 10724 10724 10724 10726 10728 10730 10729 10728 10729 10730 10732 10732 10732
10613 10610 10610 10615 10619 10622 10622 10623 10623 10623 10622 10621 10623 10625 10623 10620 10619 10620 10621 10625 10632 10633 10635 10640 10644 10646 10646 10645 10645 10643 10644 10648 10648 10649 10652 10655 10657 10659 10657 10658 10663 10666 10669 10673 10677 10682 10687 10690 10690 10691 10698 10709 10719 10721 10720 10721 10721 10717 10713 10715 10724 10722 10710 10702 10700 10701 10704 10707 10710 10713 10716 10719 10720 10722 10722 10722 10724 10726 10727 10727 10727 10726 10727 10728 10728 10728
10604 10602 10607 10612 10614 10616 10617 10617 10617 10618 10615 10614 10618 10619 10616 10615 10615 10615 10615 10619 10625 10629 10633 10634 10636 10640 10640 10639 10638 10637 10638 10642 10643 10642 10642 10643 10648 10652 10651 10651 10653 10655 10660 10666 10669 10674 10678 10679 10679 10681 10692 10704 10710 10708 10705 10706 10707 10705 10702 10704 10710 10709 10699 10694 10695 10696 10699 10702 10705 10709 10713 10716 10718 10720 10720 10720 10721 10722 10723 10724 10724 10724 10724 10724 10724 10724
10596 10598 10604 10607 10608 10610 10611 10611 10612 10612 10609 10609 10613 10613 10610 10610 10611 10612 10611 10613 10619 10624 10626 10626 10630 10634 10635 10634 10632 10630 10632 10635 10637 10638 10635 10632 10635 10642 10644 10644 10647 10649 10653 10659 10663 10665 10668 10668 10668 10675 10688 10698 10700 10698 10695 10695 10696 10693 10689 10690 10696 10695 10690 10689 10691 10695 10698 10700 10703 10706 10709 10711 10714 10716 10717 10716 10717 10718 10719 10721 10721 10721 10721 10721 10720 10720
10590 10594 10600 10601 10603 10605 10606 10606 10607 10606 10604 10605 10608 10607 10606 10606 10607 10608 10608 10611 10615 10617 10617 10620 10625 10629 10630 10629 10625 10624 10627 10629 10630 10632 10631 10625 10622 10630 10635 10637 10643 10647 10648 10652 10654 10655 10656 10657 10661 10672 10684 10691 10691 10688 10688 10689 10689 10686 10682 10683 10688 10688 10685 10684 10687 10693 10696 10699 10701 10703 10704 10706 10708 10710 10712 10711 10712 10714 10716 10718 10718 10717 10718 10718 10718 10717
10586 10589 10593 10595 10598 10600 10601 10601 10601 10600 10600 10602 10601 10601 10602 10602 10603 10606 10607 10609 10610 10610 10612 10613 10617 10621 10624 10623 10619 10620 10623 10623 10623 10624 10626 10620 10612 10618 10628 10632 10637 10640 10640 10642 10645 10645 10645 10649 10657 10668 10677 10681 10680 10679 10681 10682 10679 10675 10674 10678 10682 10684 10682 10681 10685 10691 10694 10695 10697 10698 10700 10701 10702 10704 10706 10707 10708 10711 10713 10714 10715 10715 10715 10715 10715 10715
10581 10584 10588 10590 10593 10596 10596 10595 10595 10595 10597 10597 10594 10596 10598 10599 10600 10602 10603 10604 10604 10608 10610 10606 10606 10611 10617 10617 10614 10615 10617 10617 10617 10618 10619 10615 10609 10611 10620 10625 10628 10629 10630 10633 10636 10638 10640 10644 10651 10658 10664 10667 10669 10669 10669 10666 10663 10663 10667 10673 10676 10679 10679 10679 10683 10689 10691 10692 10693 10694 10696 10697 10698 10699 10700 10702 10704 10707 10709 10710 10711 10711 10712 10712 10712 10712
10576 10578 10582 10584 10588 10591 10591 10590 10589 10590 10593 10591 10589 10592 10594 10596 10598 10597 10598 10600 10601 10606 10606 10599 10596 10602 10610 10612 10608 10609 10611 10610 10611 10611 10610 10607 10606 10609 10612 10615 10620 10622 10623 10625 10627 10631 10633 10636 10640 10644 10650 10655 10658 10659 10657 10655 10655 10658 10664 10668 10670 10673 10675 10676 10680 10684 10686 10687 10688 10689 10691 10693 10694 10695 10696 10698 10699 10702 10704 10705 10707 10707 10708 10709 10709 10709
10571 10571 10576 10580 10583 10585 10585 10584 10583 10585 10587 10587 10586 10588 10590 10591 10594 10593 10592 10596 10599 10602 10599 10593 10591 10595 10603 10605 10601 10603 10606 10605 10603 10603 10603 10600 10601 10605 10606 10607 10611 10614 10615 10616 10618 10621 10623 10624 10628 10634 10639 10644 10647 10649 10650 10652 10653 10655 10659 10664 10667 10668 10670 10672 10676 10678 10680 10682 10683 10684 10686 10687 10690 10691 10693 10694 10696 10698 10700 10702 10703 10704 10704 10705 10705 10706
10564 10566 10571 10575 10576 10578 10580 10579 10577 10579 10583 10584 10582 10583 10584 10587 10590 10589 10588 10591 10596 10597 10591 10588 10589 10591 10596 10598 10595 10596 10600 10600 10597 10595 10597 10596 10595 10599 10600 10599 10601 10604 10607 10609 10610 10612 10614 10617 10621 10626 10630 10634 10637 10640 10643 10646 10648 10652 10657 10661 10664 10664 10665 10669 10671 10674 10676 10678 10678 10679 10681 10683 10685 10687 10689 10691 10693 10695 10697 10698 10699 10700 10701 10701 10701 10702
10558 10561 10566 10569 10569 10572 10575 10574 10572 10575 10578 10580 10579 10578 10580 10582 10585 10586 10585 10587 10590 10590 10586 10585 10587 10587 10588 10590 10591 10591 10593 10593 10591 10589 10592 10591 10590 10593 10593 10592 10594 10595 10598 10602 10603 10605 10607 10611 10615 10619 10624 10627 10630 10632 10635 10638 10642 10647 10651 10655 10657 10659 10663 10667 10668 10671 10673 10674 10675 10674 10676 10679 10681 10683 10685 10688 10690 10692 10693 10695 10695 10696 10697 10697 10698 10698
10553 10557 10562 10564 10564 10564 10567 10569 10569 10570 10572 10574 10574 10575 10575 10577 10579 10581 10582 10583 10584 10585 10583 10581 10582 10581 10581 10583 10586 10587 10587 10586 10584 10584 10586 10586 10586 10588 10589 10589 10590 10590 10592 10595 10598 10600 10602 10605 10609 10613 10619 10623 10625 10627 10630 10633 10636 10640 10644 10647 10650 10655 10660 10664 10666 10668 10668 10670 10671 10670 10671 10673 10676 10678 10681 10684 10687 10688 10689 10691 10691 10692 10693 10694 10694 10694
10548 10552 10555 10558 10559 10558 10559 10562 10564 10565 10567 10570 10570 10569 10571 10572 10573 10574 10576 10579 10580 10580 10579 10576 10576 10576 10575 10577 10580 10582 10581 10580 10579 10579 10582 10582 10583 10585 10587 10587 10588 10588 10589 10591 10594 10597 10599 10602 10606 10610 10614 10618 10621 10623 10625 10628 10631 10634 10638 10641 10646 10651 10656 10658 10660 10661 10662 10664 10666 10666 10666 10669 10672 10674 10676 10680 10682 10683 10685 10687 10687 10688 10690 10690 10690 10690
10542 10546 10548 10550 10552 10554 10555 10555 10557 10560 10562 10564 10565 10565 10565 10565 10566 10568 10570 10573 10575 10576 10574 10571 10570 10571 10571 10573 10575 10575 10574 10574 10576 10576 10578 10579 10580 10582 10583 10585 10586 10588 10588 10589 10591 10594 10596 10599 10604 10608 10611 10613 10615 10618 10620 10622 10625 10629 10634 10637 10641 10647 10650 10651 10652 10654 10655 10658 10661 10662 10662 10664 10667 10670 10672 10676 10678 10679 10681 10683 10684 10685 10686 10686 10687 10687
10536 10540 10542 10543 10546 10551 10552 10550 10551 10555 10556 10558 10561 10561 10559 10558 10560 10562 10564 10567 10569 10570 10568 10564 10564 10565 10568 10570 10570 10567 10566 10571 10574 10573 10573 10575 10575 10577 10579 10581 10584 10585 10586 10587 10589 10591 10594 10598 10604 10609 10609 10609 10611 10613 10615 10616 10618 10622 10627 10631 10637 10642 10643 10643 10645 10647 10649 10653 10656 10657 10658 10660 10663 10666 10669 10672 10673 10675 10677 10678 10680 10681 10681 10682 10683 10683
10530 10534 10536 10538 10541 10545 10548 10546 10547 10549 10549 10552 10556 10556 10553 10552 10555 10557 10558 10560 10562 10563 10562 10559 10557 10560 10564 10566 10564 10560 10561 10567 10570 10568 10569 10571 10572 10574 10576 10578 10579 10579 10581 10584 10586 10589 10592 10597 10604 10607 10605 10605 10607 10608 10609 10611 10614 10618 10621 10625 10630 10634 10635 10636 10638 10641 10644 10648 10652 10654 10655 10656 10658 10662 10665 10667 10669 10671 10672 10674 10675 10676 10677 10678 10679 10679
10525 10529 10533 10536 10536 10538 10542 10543 10543 10543 10544 10546 10548 10548 10548 10548 10549 10550 10551 10554 10555 10556 10556 10554 10552 10555 10559 10559 10557 10556 10558 10562 10563 10564 10566 10568 10569 10572 10574 10576 10576 10576 10577 10582 10585 10587 10590 10595 10599 10600 10599 10600 10602 10604 10606 10609 10613 10616 10618 10622 10627 10630 10631 10632 10635 10638 10641 10645 10648 10650 10652 10653 10655 10659 10661 10662 10664 10665 10667 10669 10670 10671 10672 10673 10674 10675
10522 10526 10529 10532 10530 10530 10536 10539 10539 10538 10537 10539 10541 10542 10542 10542 10543 10544 10545 10548 10549 10550 10551 10549 10548 10551 10553 10552 10552 10553 10554 10556 10557 10559 10561 10564 10568 10572 10574 10577 10577 10576 10577 10581 10584 10585 10587 10591 10592 10593 10593 10595 10597 10601 10604 10608 10611 10614 10615 10619 10624 10627 10629 10631 10632 10634 10635 10638 10643 10646 10649 10652 10654 10654 10655 10656 10657 10659 10661 10663 10665 10666 10667 10668 10669 10670
10517 10522 10524 10526 10523 10524 10531 10534 10533 10531 10530 10531 10533 10535 10535 10536 10537 10539 10540 10542 10544 10545 10545 10544 10544 10547 10547 10547 10547 10548 10549 10551 10552 10554 10557 10561 10566 10571 10574 10577 10578 10577 10577 10580 10583 10585 10588 10591 10591 10590 10591 10592 10594 10598 10600 10604 10607 10609 10611 10615 10618 10621 10623 10625 10626 10627 10629 10634 10640 10644 10648 10652 10652 10649 10650 10651 10652 10653 10654 10656 10659 10660 10661 10662 10663 10664
10513 10517 10518 10518 10517 10519 10524 10527 10525 10523 10524 10526 10526 10527 10528 10530 10532 10535 10537 10538 10539 10539 10540 10539 10540 10540 10541 10541 10542 10544 10545 10547 10549 10551 10554 10558 10562 10566 10569 10571 10572 10573 10574 10576 10579 10582 10586 10588 10589 10589 10589 10589 10591 10593 10595 10599 10602 10605 10609 10612 10614 10614 10614 10617 10619 10623 10628 10633 10639 10644 10648 10651 10648 10645 10644 10645 10647 10649 10649 10650 10653 10654 10656 10657 10658 10659
10506 10510 10510 10510 10511 10513 10515 10518 10517 10517 10519 10519 10518 10518 10522 10526 10530 10531 10533 10533 10533 10534 10534 10534 10534 10534 10535 10535 10537 10539 10540 10542 10545 10547 10550 10553 10557 10560 10562 10561 10562 10565 10567 10569 10572 10574 10577 10579 10580 10581 10582 10583 10585 10587 10589 10592 10595 10599 10603 10606 10606 10606 10606 10610 10615 10620 10625 10630 10638 10643 10644 10642 10639 10638 10638 10638 10641 10645 10644 10644 10646 10648 10650 10652 10652 10653
10497 10501 10504 10503 10504 10505 10507 10511 10512 10512 10511 10511 10512 10516 10519 10523 10525 10525 10526 10527 10527 10528 10528 10528 10527 10528 10529 10530 10532 10534 10535 10535 10536 10539 10543 10548 10551 10553 10553 10553 10554 10557 10560 10562 10565 10567 10568 10570 10572 10574 10576 10578 10580 10582 10584 10587 10590 10592 10595 10596 10598 10600 10602 10606 10611 10615 10619 10625 10633 10636 10634 10632 10633 10635 10635 10634 10636 10640 10640 10639 10641 10643 10645 10646 10646 10648
10489 10493 10497 10496 10496 10500 10502 10505 10506 10504 10504 10506 10510 10513 10515 10516 10517 10518 10520 10521 10521 10522 10523 10522 10522 10523 10524 10526 10527 10529 10531 10531 10531 10532 10536 10541 10545 10546 10547 10548 10550 10552 10555 10557 10559 10561 10562 10564 10566 10568 10571 10573 10575 10577 10579 10582 10584 10586 10588 10590 10593 10597 10600 10602 10605 10609 10614 10619 10624 10627 10628 10629 10630 10632 10634 10632 10631 10633 10634 10635 10637 10639 10639 10640 10640 10642
10481 10485 10490 10489 10491 10495 10496 10497 10499 10498 10499 10503 10505 10507 10507 10508 10510 10513 10515 10516 10516 10516 10517 10518 10518 10518 10519 10521 10522 10523 10525 10527 10527 10528 10531 10534 10537 10539 10542 10544 10546 10548 10551 10553 10555 10556 10558 10560 10561 10563 10566 10568 10570 10572 10574 10577 10579 10581 10582 10584 10588 10593 10595 10597 10600 10604 10609 10613 10616 10621 10624 10624 10624 10627 10630 10628 10625 10626 10629 10632 10633 10634 10634 10633 10634 10638
10475 10479 10483 10484 10486 10488 10488 10489 10492 10492 10494 10497 10499 10500 10500 10501 10504 10506 10508 10510 10510 10511 10511 10513 10513 10512 10513 10516 10517 10518 10519 10521 10522 10524 10526 10528 10530 10533 10536 10539 10541 10543 10546 10548 10550 10551 10553 10555 10557 10559 10561 10563 10565 10567 10569 10571 10574 10577 10578 10581 10584 10588 10591 10593 10596 10600 10604 10608 10612 10615 10618 10618 10619 10622 10623 10622 10621 10622 10624 10627 10629 10630 10629 10627 10630 10633
10469 10472 10475 10478 10480 10481 10481 10482 10484 10486 10489 10491 10494 10495 10494 10496 10499 10500 10502 10504 10506 10506 10506 10508 10508 10507 10508 10510 10512 10513 10514 10514 10516 10518 10522 10524 10525 10528 10531 10534 10537 10540 10542 10544 10546 10547 10549 10552 10554 10555 10557 10558 10559 10561 10563 10565 10569 10572 10575 10578 10581 10584 10587 10589 10592 10596 10599 10603 10606 10609 10611 10612 10614 10616 10616 10616 10617 10618 10619 10622 10625 10625 10623 10623 10625 10628
10461 10464 10468 10471 10473 10473 10473 10475 10478 10481 10484 10487 10489 10489 10489 10491 10493 10495 10497 10499 10501 10502 10502 10503 10504 10504 10503 10505 10507 10509 10509 10510 10511 10513 10517 10520 10522 10524 10526 10530 10533 10535 10537 10540 10542 10543 10545 10547 10549 10551 10552 10553 10555 10556 10558 10560 10563 10567 10571 10575 10578 10581 10583 10585 10588 10592 10595 10598 10601 10604 10606 10607 10608 10610 10611 10611 10612 10613 10614 10616 10618 10618 10618 10619 10621 10622
10453 10457 10460 10463 10465 10466 10466 10469 10473 10477 10479 10482 10484 10484 10484 10486 10487 10490 10492 10494 10497 10498 10498 10499 10500 10500 10499 10500 10502 10505 10506 10507 10508 10509 10512 10515 10518 10520 10523 10525 10528 10530 10532 10535 10536 10539 10541 10543 10545 10546 10547 10548 10550 10552 10554 10555 10559 10563 10567 10571 10574 10576 10578 10581 10585 10588 10591 10594 10597 10600 10601 10602 10603 10605 10606 10606 10606 10607 10609 10610 10610 10612 10614 10614 10614 10615
10446 10449 10453 10456 10458 10460 10462 10465 10469 10471 10473 10475 10477 10478 10479 10479 10481 10485 10487 10490 10492 10493 10492 10494 10494 10494 10495 10496 10498 10500 10502 10504 10506 10507 10509 10511 10514 10516 10519 10521 10522 10525 10527 10529 10531 10534 10536 10538 10540 10542 10542 10543 10545 10547 10549 10551 10554 10559 10563 10566 10569 10571 10574 10577 10580 10583 10587 10591 10594 10595 10596 10597 10598 10599 10600 10601 10600 10602 10604 10603 10603 10606 10607 10606 10607 10608
10440 10443 10446 10448 10450 10454 10457 10459 10462 10465 10466 10469 10472 10473 10473 10472 10475 10479 10482 10485 10487 10487 10488 10489 10489 10488 10490 10492 10494 10496 10497 10500 10503 10505 10506 10508 10510 10512 10514 10516 10518 10520 10522 10524 10526 10528 10530 10533 10535 10537 10537 10539 10540 10542 10544 10547 10550 10554 10558 10561 10563 10566 10570 10573 10575 10577 10581 10586 10588 10589 10590 10591 10592 10593 10594 10596 10596 10597 10598 10596 10595 10597 10598 10600 10601 10603
10432 10436 10439 10441 10444 10448 10451 10453 10456 10459 10461 10464 10467 10467 10467 10467 10470 10473 10476 10479 10482 10483 10484 10485 10484 10484 10486 10488 10490 10492 10494 10496 10498 10500 10502 10503 10506 10508 10510 10511 10514 10516 10517 10519 10521 10524 10525 10528 10530 10531 10533 10534 10536 10538 10540 10543 10547 10550 10553 10555 10558 10562 10566 10569 10570 10573 10577 10580 10581 10582 10583 10586 10587 10587 10588 10590 10591 10589 10589 10589 10589 10590 10592 10594 10596 10598
10425 10429 10433 10435 10438 10443 10445 10446 10449 10452 10455 10459 10461 10461 10461 10462 10464 10467 10469 10472 10476 10478 10480 10480 10480 10480 10482 10484 10486 10488 10490 10491 10493 10495 10497 10499 10501 10503 10505 10507 10509 10511 10512 10514 10516 10518 10520 10522 10524 10526 10528 10530 10532 10533 10536 10539 10542 10545 10547 10550 10553 10558 10562 10564 10566 10568 10571 10574 10575 10576 10578 10580 10581 10582 10583 10584 10584 10581 10581 10583 10585 10586 10587 10588 10590 10593
10418 10422 10427 10430 10432 10437 10440 10440 10441 10446 10450 10452 10454 10454 10455 10456 10458 10460 10463 10466 10469 10472 10474 10475 10476 10477 10478 10479 10481 10483 10485 10487 10488 10490 10491 10493 10495 10497 10499 10501 10503 10504 10505 10508 10510 10513 10515 10517 10518 10520 10522 10525 10527 10529 10532 10535 10538 10540 10542 10545 10550 10554 10557 10558 10560 10563 10565 10567 10569 10570 10572 10574 10575 10577 10578 10578 10577 10575 10575 10577 10581 10582 10582 10583 10584 10586
10413 10417 10420 10423 10426 10429 10433 10433 10435 10440 10444 10445 10446 10448 10450 10451 10452 10454 10457 10460 10462 10465 10467 10469 10471 10472 10473 10475 10476 10478 10479 10481 10483 10485 10487 10489 10490 10492 10494 10495 10497 10498 10499 10502 10505 10506 10509 10511 10512 10514 10517 10520 10522 10524 10527 10530 10533 10535 10537 10541 10545 10547 10548 10551 10554 10556 10558 10561 10563 10564 10565 10567 10569 10571 10572 10572 10571 10571 10571 10572 10575 10577 10577 10578 10578 10580
10408 10411 10414 10417 10419 10421 10424 10426 10428 10434 10437 10438 10440 10442 10444 10446 10447 10448 10450 10453 10456 10459 10461 10463 10465 10466 10468 10469 10470 10472 10474 10475 10476 10479 10481 10483 10485 10487 10488 10490 10491 10492 10494 10496 10499 10500 10503 10505 10507 10509 10511 10514 10517 10520 10522 10525 10527 10530 10533 10536 10538 10538 10540 10544 10547 10550 10552 10554 10556 10557 10558 10560 10562 10564 10566 10565 10565 10566 10567 10568 10569 10570 10572 10572 10572 10573
10402 10404 10406 10409 10411 10414 10417 10418 10422 10426 10430 10432 10434 10437 10439 10440 10442 10443 10445 10447 10450 10453 10455 10456 10459 10461 10462 10463 10465 10466 10467 10469 10471 10473 10475 10478 10479 10481 10482 10484 10485 10487 10488 10490 10493 10495 10497 10499 10501 10503 10506 10509 10512 10515 10518 10520 10522 10525 10527 10530 10531 10532 10535 10539 10541 10543 10545 10547 10549 10551 10552 10554 10556 10558 10559 10559 10559 10560 10562 10562 10563 10565 10566 10565 10565 10567
10395 10397 10399 10402 10406 10409 10410 10413 10416 10420 10423 10426 10428 10430 10432 10433 10435 10438 10439 10441 10444 10446 10448 10450 10452 10454 10456 10457 10459 10460 10462 10464 10466 10468 10470 10472 10473 10474 10476 10477 10479 10481 10483 10485 10487 10490 10492 10494 10497 10499 10501 10504 10507 10510 10513 10515 10517 10519 10522 10524 10525 10527 10530 10533 10535 10536 10538 10539 10542 10544 10545 10547 10550 10551 10552 10553 10554 10555 10556 10557 10559 10560 10559 10557 10558 10561
10389 10391 10393 10396 10401 10403 10405 10408 10412 10415 10418 10419 10420 10423 10425 10426 10429 10432 10433 10435 10437 10440 10442 10444 10446 10448 10450 10451 10453 10455 10456 10458 10460 10462 10464 10465 10467 10467 10469 10471 10473 10476 10477 10479 10481 10484 10487 10490 10492 10494 10496 10499 10501 10505 10508 10510 10512 10514 10516 10518 10519 10521 10524 10526 10528 10529 10531 10533 10535 10537 10538 10541 10543 10544 10546 10547 10548 10548 10549 10550 10552 10553 10552 10550 10551 10552
10382 10385 10387 10391 10395 10397 10400 10403 10406 10410 10412 10411 10411 10415 10419 10420 10423 10426 10427 10429 10431 10433 10435 10438 10440 10441 10443 10445 10447 10448 10450 10451 10454 10456 10458 10459 10460 10461 10462 10464 10467 10469 10472 10473 10476 10478 10481 10484 10486 10488 10491 10493 10496 10499 10502 10505 10507 10508 10510 10512 10514 10515 10518 10519 10520 10522 10525 10527 10529 10531 10533 10534 10536 10538 10539 10540 10541 10542 10543 10544 10545 10546 10545 10544 10543 10542
10375 10378 10381 10385 10389 10392 10395 10398 10401 10404 10405 10404 10404 10407 10411 10414 10417 10419 10420 10423 10425 10426 10427 10430 10432 10435 10437 10438 10440 10442 10444 10446 10448 10450 10451 10452 10453 10454 10455 10457 10460 10462 10465 10467 10469 10472 10475 10478 10481 10483 10485 10487 10490 10493 10496 10499 10501 10502 10504 10506 10508 10510 10512 10514 10515 10517 10518 10520 10523 10525 10526 10528 10530 10531 10531 10533 10535 10536 10536 10537 10538 10539 10538 10537 10535 10533
10369 10372 10375 10379 10383 10386 10389 10391 10395 10397 10397 10396 10397 10399 10402 10406 10409 10411 10414 10416 10418 10419 10420 10422 10425 10428 10430 10431 10433 10435 10438 10440 10442 10443 10444 10445 10446 10447 10448 10450 10452 10454 10457 10459 10462 10465 10468 10471 10475 10478 10479 10481 10484 10486 10489 10492 10494 10496 10498 10500 10501 10503 10506 10508 10510 10512 10513 10514 10516 10517 10519 10521 10522 10523 10525 10527 10528 10528 10528 10529 10530 10531 10530 10528 10527 10525
10363 10367 10370 10373 10376 10379 10382 10384 10387 10389 10389 10387 10388 10391 10394 10397 10401 10404 10407 10409 10411 10412 10415 10416 10418 10421 10423 10425 10427 10429 10432 10434 10435 10436 10437 10438 10439 10440 10442 10443 10444 10446 10448 10451 10454 10457 10461 10465 10469 10471 10473 10475 10477 10479 10482 10485 10487 10489 10491 10493 10495 10497 10499 10502 10504 10506 10508 10509 10510 10511 10512 10513 10514 10516 10517 10517 10517 10518 10519 10520 10521 10521 10521 10520 10520 10520
10357 10361 10364 10366 10369 10371 10373 10375 10378 10380 10381 10380 10382 10385 10388 10390 10394 10397 10400 10402 10404 10406 10409 10411 10412 10414 10416 10418 10420 10422 10425 10426 10427 10429 10431 10431 10432 10434 10435 10436 10437 10439 10441 10443 10446 10450 10454 10457 10460 10463 10466 10468 10470 10472 10474 10477 10480 10483 10485 10487 10489 10490 10492 10495 10498 10500 10501 10503 10504 10505 10506 10506 10508 10509 10509 10508 10509 10511 10512 10513 10514 10515 10515 10515 10515 10516
10351 10354 10357 10359 10360 10362 10365 10368 10371 10373 10374 10375 10377 10379 10382 10385 10387 10390 10393 10395 10398 10400 10402 10404 10406 10407 10409 10411 10413 10415 10417 10419 10421 10423 10424 10425 10426 10427 10428 10429 10431 10432 10433 10435 10438 10442 10445 10448 10451 10455 10458 10460 10462 10464 10467 10469 10472 10475 10477 10480 10482 10484 10485 10488 10490 10493 10495 10496 10497 10499 10500 10500 10501 10500 10500 10501 10502 10504 10505 10506 10507 10508 10508 10508 10509 10509
10346 10349 10351 10352 10354 10357 10361 10363 10366 10368 10369 10370 10372 10373 10376 10379 10381 10384 10387 10389 10392 10394 10396 10398 10400 10401 10403 10405 10407 10409 10410 10412 10414 10416 10417 10418 10420 10420 10421 10422 10424 10425 10426 10428 10430 10433 10436 10439 10442 10446 10449 10452 10454 10457 10459 10461 10464 10467 10470 10472 10474 10476 10478 10480 10483 10485 10487 10489 10490 10492 10493 10493 10492 10491 10492 10493 10494 10495 10497 10497 10498 10499 10499 10500 10500 10501
10342 10344 10346 10348 10350 10354 10357 10359 10361 10363 10364 10365 10367 10369 10371 10373 10376 10378 10381 10383 10386 10388 10390 10392 10394 10395 10397 10399 10401 10402 10403 10405 10407 10408 10410 10411 10412 10414 10414 10415 10416 10418 10419 10421 10423 10425 10427 10430 10433 10436 10439 10443 10445 10448 10450 10453 10455 10458 10461 10464 10466 10469 10471 10473 10474 10476 10479 10481 10482 10483 10484 10484 10484 10483 10484 10485 10486 10487 10488 10488 10489 10489 10490 10490 10491 10492
10338 10340 10342 10344 10347 10350 10352 10354 10356 10358 10359 10361 10362 10364 10366 10368 10371 10373 10375 10378 10380 10382 10384 10386 10388 10389 10391 10393 10394 10395 10397 10398 10400 10401 10402 10403 10404 10406 10407 10407 10408 10409 10411 10413 10415 10416 10418 10421 10424 10426 10429 10433 10436 10439 10441 10443 10446 10448 10451 10455 10458 10460 10462 10464 10466 10467 10469 10472 10473 10474 10475 10476 10476 10476 10476 10477 10478 10479 10480 10480 10481 10481 10481 10481 10482 10483
10336 10338 10339 10341 10344 10346 10348 10350 10352 10353 10355 10356 10358 10360 10362 10364 10367 10369 10371 10373 10375 10377 10379 10381 10383 10384 10386 10387 10388 10389 10390 10391 10392 10393 10394 10395 10396 10397 10398 10399 10400 10401 10402 10404 10406 10408 10409 10411 10414 10417 10420 10423 10427 10429 10432 10434 10436 10439 10442 10445 10448 10451 10453 10455 10457 10459 10460 10462 10464 10466 10467 10467 10468 10468 10468 10468 10469 10470 10471 10471 10472 10472 10472 10473 10474 10475
10334 10336 10337 10339 10341 10343 10345 10347 10348 10350 10352 10353 10355 10357 10359 10362 10364 10366 10367 10369 10370 10372 10373 10375 10376 10377 10378 10379 10380 10380 10380 10381 10382 10383 10384 10385 10386 10387 10387 10389 10390 10391 10392 10394 10396 10398 10400 10402 10404 10407 10410 10414 10417 10420 10422 10424 10426 10429 10432 10434 10437 10441 10443 10446 10448 10449 10451 10452 10454 10456 10458 10459 10459 10459 10460 10460 10461 10461 10462 10462 10462 10462 10463 10465 10466 10466